Location: Hermaringen
(48.5952°N, 10.2585°E)
Time: 18:37:11
(UTC+00:00)

Altair - Pass Details

Date: 24 February 2026
Orbit: 1502 x 1682 km, 47.2° (Epoch: 10 March)

Event Time Altitude Azimuth Distance (km) Brightness Sun altitude
Rises 02:30:23 0° 230° (SW) 4,628 - -36.1°
Reaches altitude 10° 02:33:27 10° 226° (SW) 3,647 - -35.6°
Exits shadow 02:41:40 55° 166° (SSE) 1,766 7.6 -34.4°
Maximum altitude 02:42:17 56° 151° (SSE) 1,753 7.6 -34.4°
Drops below altitude 10° 02:51:18 10° 77° (ENE) 3,720 10.3 -33.0°
Sets 02:54:28 0° 73° (ENE) 4,727 11.1 -32.6°
